[[{"header":{"parameterUnit":"m.s-1","parameterCategory":1,"la1":30.2991,"la2":30.254,"lo1":-89.0895,"lo2":-89.0444,"dy":0.0017,"dx":0.0017,"nx":28,"ny":28,"refTime":"2025-07-02T21:00:00:Z","depth":0,"parameterNumber":2,"parameterNumberName":"U-component_of_WINDS"},"data":[0,0,0,0,0,0,0,0,0,0,0,0,0,0,0,0,0,0,0,0,0,0,0,0,0,0,0,0,0,0,0,0,0,0,0,0,0,0,0,0,0,0,0,0,0,0,0,0,0,0,0,0,0,0,0,0,0,0,-0.3627,-0.3627,0,-0.359,-0.359,-0.359,-0.3597,-0.3598,-0.3598,-0.3599,-0.356,-0.3559,-0.3557,0,0,0,0,0,0,0,0,0,0,0,0,0,-0.3704,-0.3702,-0.3627,-0.3627,-0.3627,-0.359,-0.359,-0.3589,-0.3597,-0.3598,-0.3599,-0.3599,-0.3561,-0.3559,-0.3557,0,0,0,0,0,0,0,0,0,0,0,0,0,-0.3669,-0.3702,-0.3628,-0.3626,-0.3625,-0.3591,-0.359,-0.3589,-0.3597,-0.3598,-0.3599,-0.36,-0.3561,-0.3559,-0.3557,-0.3521,0,0,-0.3549,-0.3548,0,0,0,0,0,0,0,0,-0.3671,-0.3666,-0.3627,-0.3626,-0.3625,-0.3599,-0.3603,-0.3566,-0.3596,-0.3608,-0.3599,-0.36,-0.3572,-0.3569,-0.356,-0.3519,-0.3517,-0.3549,-0.3547,-0.3546,-0.3545,0,0,0,0,0,0,0,-0.3673,-0.3668,-0.3613,-0.3626,-0.3625,-0.3627,-0.3623,-0.3596,-0.3585,-0.3607,-0.3607,-0.3603,-0.3572,-0.3562,-0.3559,-0.3517,-0.3549,-0.3547,-0.3545,-0.3544,-0.3444,-0.3443,0,0,0,0,0,0,-0.3676,-0.367,-0.3614,-0.3612,-0.3651,-0.3624,-0.362,-0.3607,-0.3585,-0.3583,-0.3602,-0.3603,-0.3566,-0.3562,-0.3558,-0.3515,-0.3546,-0.3544,-0.3542,-0.3446,-0.3444,-0.3443,0,0,0,0,0,0,-0.3678,-0.3671,-0.3615,-0.3641,-0.3634,-0.3622,-0.3607,-0.3605,-0.3595,-0.3581,-0.3579,-0.3594,-0.3567,-0.3561,-0.353,-0.3513,-0.3543,-0.354,-0.3447,-0.3445,-0.3444,-0.3428,0,0,0,0,0,0,-0.368,-0.3672,-0.3658,-0.364,-0.3632,-0.3589,-0.3606,-0.3604,-0.3591,-0.3593,-0.3573,-0.3571,-0.3567,-0.3534,-0.3527,-0.351,-0.3538,-0.3448,-0.3446,-0.3444,-0.343,-0.3426,-0.3422,0,0,0,0,0,-0.3683,-0.3655,-0.3658,-0.3651,-0.3615,-0.3588,-0.3583,-0.3579,-0.359,-0.3576,-0.3567,-0.3572,-0.3516,-0.353,-0.3523,-0.3505,-0.3449,-0.3447,-0.3444,-0.3431,-0.3427,-0.3422,0,0,0,0,0,0,-0.3671,-0.3653,-0.3655,-0.3621,-0.3606,-0.3589,-0.3572,-0.3574,-0.3555,-0.3557,-0.3553,-0.3549,-0.3517,-0.3508,-0.3524,-0.3469,-0.3484,-0.348,-0.3477,-0.3472,-0.3468,-0.3472,-0.3536,0,0,0,0,0,-0.3665,-0.3644,-0.3629,-0.36,-0.3593,-0.3583,-0.3571,-0.3569,-0.3553,-0.3547,-0.3536,-0.3519,-0.3498,-0.3485,-0.3464,-0.3428,-0.3424,-0.3412,-0.3409,-0.3406,-0.3402,-0.3383,-0.3377,-0.3434,-0.3434,-0.3434,0,0,-0.3651,-0.3639,-0.3626,-0.3598,-0.3586,-0.3564,-0.3578,-0.3554,-0.3538,-0.3543,-0.3513,-0.3504,-0.3486,-0.3452,-0.3437,-0.3444,-0.3386,-0.3402,-0.34,-0.3398,-0.338,-0.3374,-0.3369,-0.3433,-0.3433,-0.3433,0,0,-0.3616,-0.3604,-0.3579,-0.3567,-0.3548,-0.3542,-0.3536,-0.3519,-0.3513,-0.3483,-0.3486,-0.3466,-0.343,-0.3417,-0.3406,-0.3365,-0.3368,-0.3358,-0.3339,-0.332,-0.3315,-0.3311,-0.3297,-0.3292,-0.3355,-0.3355,-0.3355,0,-0.3601,-0.3569,-0.3566,-0.3542,-0.353,-0.3533,-0.3508,-0.3496,-0.3471,-0.3463,-0.3471,-0.3425,-0.3413,-0.3376,-0.3366,-0.3357,-0.335,-0.3361,-0.3316,-0.3312,-0.3309,-0.3295,-0.329,-0.3354,-0.3354,-0.3354,-0.3354,0,-0.3552,-0.353,-0.3512,-0.3489,-0.3474,-0.345,-0.3442,-0.3428,-0.3427,-0.342,-0.3389,-0.3375,-0.3352,-0.3343,-0.3342,-0.3306,-0.3311,-0.3317,-0.3332,-0.3302,-0.3289,-0.3284,-0.3352,-0.3352,-0.3353,-0.3353,0,0,-0.351,-0.3485,-0.3478,-0.3468,-0.3447,-0.343,-0.3405,-0.3383,-0.3371,-0.3354,-0.3333,-0.3302,-0.3308,-0.3295,-0.3293,-0.3276,-0.3245,-0.3285,-0.3284,-0.3278,-0.3205,-0.32,-0.3194,-0.3247,-0.3246,-0.3245,-0.3206,0,-0.3473,-0.343,-0.3426,-0.3387,-0.3367,-0.3369,-0.3348,-0.3333,-0.3325,-0.3307,-0.3298,-0.3276,-0.3286,-0.3278,-0.3262,-0.3252,-0.323,-0.3255,-0.3228,-0.3227,-0.3233,-0.3187,-0.3183,-0.3147,-0.3201,-0.32,-0.32,0,-0.3424,-0.3406,-0.3366,-0.3348,-0.334,-0.332,-0.33,-0.3282,-0.3264,-0.326,-0.3245,-0.3245,-0.3219,-0.3235,-0.3199,-0.3216,-0.3205,-0.3198,-0.3197,-0.3195,-0.3212,-0.3185,-0.3136,-0.3131,-0.3192,-0.3192,-0.3193,0,-0.3398,-0.3363,-0.3335,-0.3325,-0.3304,-0.3291,-0.3281,-0.3265,-0.3252,-0.3234,-0.3225,-0.3204,-0.3192,-0.3175,-0.3169,-0.3181,-0.3134,-0.3149,-0.313,-0.313,-0.3121,-0.3122,-0.307,-0.3112,-0.3112,-0.3112,-0.3112,0,-0.3357,-0.3333,-0.3322,-0.3305,-0.3277,-0.3272,-0.3245,-0.3236,-0.3221,-0.3202,-0.3202,-0.3184,-0.3177,-0.3157,-0.3152,-0.3124,-0.3118,-0.3114,-0.3113,-0.3114,-0.3115,-0.3107,-0.311,-0.3111,-0.3111,-0.3111,-0.3112,0,-0.3324,-0.3316,-0.3285,-0.3267,-0.3262,-0.3242,-0.3227,-0.321,-0.3203,-0.3178,-0.3172,-0.316,-0.3137,-0.3129,-0.3101,-0.3097,-0.3065,-0.3065,-0.3071,-0.3071,-0.3053,-0.3055,-0.2995,-0.2987,-0.3034,-0.3033,-0.3033,0,-0.3299,-0.328,-0.326,-0.3248,-0.3238,-0.3217,-0.3204,-0.3197,-0.3183,-0.3162,-0.3148,-0.3125,-0.3106,-0.3069,-0.3058,-0.3037,-0.3037,-0.3018,-0.3034,-0.3036,-0.3038,-0.3039,-0.3037,-0.3015,-0.3014,-0.3014,-0.3014,0,-0.3256,-0.3253,-0.3234,-0.3213,-0.3197,-0.3181,-0.3164,-0.3154,-0.3145,-0.3129,-0.3106,-0.3091,-0.3063,-0.304,-0.3018,-0.3008,-0.3009,-0.3008,-0.3003,-0.3005,-0.3009,-0.3007,-0.3063,-0.301,-0.301,-0.3011,-0.3011,-0.3011,-0.3226,-0.321,-0.3194,-0.3172,-0.3159,-0.3144,-0.3127,-0.3118,-0.3098,-0.3075,-0.3072,-0.3047,-0.303,-0.3,-0.2989,-0.2969,-0.2974,-0.2967,-0.2965,-0.2963,-0.2962,-0.3011,-0.2965,-0.2965,-0.2965,-0.2965,-0.2965,0,-0.3184,-0.3174,-0.3154,-0.3132,-0.3115,-0.3117,-0.3099,-0.3085,-0.3063,-0.3047,-0.3029,-0.3002,-0.298,-0.2967,-0.2944,-0.2931,-0.2931,-0.2925,-0.2927,-0.2924,-0.2958,-0.2965,-0.2926,-0.2926,-0.2926,-0.2926,-0.2926,-0.2926,-0.316,-0.3133,-0.3128,-0.3093,-0.3083,-0.3058,-0.3048,-0.3034,-0.3021,-0.2991,-0.2973,-0.2964,-0.2949,-0.2926,-0.2906,-0.2902,-0.2895,-0.2888,-0.2886,-0.2918,-0.2922,-0.2926,-0.2933,-0.2887,-0.2887,-0.2854,-0.2853,-0.2853]},{"header":{"parameterUnit":"m.s-1","parameterCategory":1,"la1":30.2991,"la2":30.254,"lo1":-89.0895,"lo2":-89.0444,"dy":0.0017,"dx":0.0017,"nx":28,"ny":28,"refTime":"2025-07-02T21:00:00:Z","depth":0,"parameterNumber":3,"parameterNumberName":"V-component_of_WINDS"},"data":[0,0,0,0,0,0,0,0,0,0,0,0,0,0,0,0,0,0,0,0,0,0,0,0,0,0,0,0,0,0,0,0,0,0,0,0,0,0,0,0,0,0,0,0,0,0,0,0,0,0,0,0,0,0,0,0,0,0,-2.205,-2.2051,0,-2.2127,-2.2128,-2.2129,-2.2149,-2.2149,-2.2148,-2.2148,-2.2225,-2.2228,-2.223,0,0,0,0,0,0,0,0,0,0,0,0,0,-2.1919,-2.1921,-2.205,-2.2051,-2.2052,-2.2127,-2.2128,-2.2129,-2.2149,-2.2149,-2.2148,-2.2148,-2.2224,-2.2227,-2.223,0,0,0,0,0,0,0,0,0,0,0,0,0,-2.1984,-2.1922,-2.205,-2.2071,-2.2074,-2.2127,-2.2128,-2.213,-2.215,-2.2149,-2.2148,-2.2148,-2.2223,-2.2227,-2.2231,-2.2268,0,0,-2.2242,-2.2244,0,0,0,0,0,0,0,0,-2.198,-2.1988,-2.2067,-2.207,-2.2073,-2.2128,-2.211,-2.2176,-2.215,-2.2121,-2.2148,-2.2147,-2.2193,-2.2199,-2.2215,-2.2271,-2.2274,-2.2242,-2.2245,-2.2246,-2.2247,0,0,0,0,0,0,0,-2.1975,-2.1985,-2.208,-2.2068,-2.2072,-2.2076,-2.2085,-2.2123,-2.216,-2.2123,-2.2125,-2.2134,-2.2195,-2.2212,-2.2217,-2.2276,-2.2242,-2.2246,-2.2248,-2.2249,-2.2368,-2.2369,0,0,0,0,0,0,-2.1967,-2.1981,-2.2078,-2.2083,-2.2024,-2.2079,-2.2089,-2.2111,-2.2159,-2.2166,-2.2134,-2.2135,-2.2206,-2.2213,-2.222,-2.2268,-2.2246,-2.225,-2.2252,-2.2367,-2.2368,-2.2369,0,0,0,0,0,0,-2.1965,-2.1976,-2.2075,-2.2033,-2.2046,-2.2082,-2.2107,-2.2113,-2.213,-2.2168,-2.2175,-2.2145,-2.2205,-2.2215,-2.2256,-2.2271,-2.2251,-2.2255,-2.2366,-2.2367,-2.2368,-2.2364,0,0,0,0,0,0,-2.1961,-2.1975,-2.1989,-2.2033,-2.2048,-2.211,-2.2108,-2.2115,-2.2137,-2.2137,-2.218,-2.2186,-2.2206,-2.2251,-2.226,-2.2276,-2.2258,-2.2365,-2.2366,-2.2368,-2.2363,-2.2365,-2.2367,0,0,0,0,0,-2.1956,-2.1984,-2.199,-2.2001,-2.2067,-2.2111,-2.2119,-2.2142,-2.2138,-2.2153,-2.2177,-2.2185,-2.2268,-2.2255,-2.2265,-2.2283,-2.2364,-2.2366,-2.2368,-2.2362,-2.2364,-2.2366,0,0,0,0,0,0,-2.194,-2.199,-2.1997,-2.204,-2.2071,-2.2114,-2.2134,-2.2143,-2.2176,-2.2175,-2.2201,-2.221,-2.225,-2.227,-2.2255,-2.2322,-2.2316,-2.232,-2.2308,-2.231,-2.2312,-2.2307,-2.2261,0,0,0,0,0,-2.1941,-2.1973,-2.2015,-2.2049,-2.2064,-2.2096,-2.2116,-2.2131,-2.2164,-2.2177,-2.2205,-2.2236,-2.2269,-2.2291,-2.2323,-2.2365,-2.2376,-2.2383,-2.2385,-2.2386,-2.239,-2.2416,-2.242,-2.2376,-2.2376,-2.2376,0,0,-2.1944,-2.1976,-2.1994,-2.2046,-2.2072,-2.2105,-2.2107,-2.2141,-2.2166,-2.2182,-2.2224,-2.2245,-2.2282,-2.2324,-2.2344,-2.2342,-2.2404,-2.2389,-2.2389,-2.2393,-2.2418,-2.2422,-2.2426,-2.2377,-2.2377,-2.2377,0,0,-2.1968,-2.1994,-2.2026,-2.2053,-2.2092,-2.2114,-2.2121,-2.2163,-2.2179,-2.2221,-2.2235,-2.2264,-2.232,-2.2347,-2.2367,-2.2402,-2.2411,-2.2412,-2.2422,-2.2447,-2.2451,-2.2454,-2.2468,-2.2472,-2.2415,-2.2415,-2.2415,0,-2.1967,-2.2017,-2.2041,-2.2076,-2.2099,-2.2116,-2.2149,-2.2173,-2.2221,-2.2237,-2.2234,-2.2307,-2.2332,-2.2382,-2.2391,-2.2406,-2.2417,-2.2408,-2.2448,-2.2452,-2.2455,-2.2469,-2.2474,-2.2415,-2.2415,-2.2415,-2.2415,0,-2.2015,-2.2049,-2.207,-2.2118,-2.2143,-2.2177,-2.2206,-2.2229,-2.2242,-2.2263,-2.2307,-2.2339,-2.2379,-2.2392,-2.2404,-2.2444,-2.2442,-2.2443,-2.2438,-2.2459,-2.2472,-2.2478,-2.2415,-2.2415,-2.2415,-2.2415,0,0,-2.2029,-2.2091,-2.2099,-2.2121,-2.2167,-2.2195,-2.2229,-2.227,-2.2289,-2.2322,-2.2352,-2.24,-2.2403,-2.2426,-2.2441,-2.2463,-2.2491,-2.2462,-2.2463,-2.2468,-2.2539,-2.2539,-2.2545,-2.2497,-2.2498,-2.2499,-2.2537,0,-2.2059,-2.2123,-2.2146,-2.2198,-2.2231,-2.2249,-2.2279,-2.2311,-2.2332,-2.2363,-2.2387,-2.2421,-2.2421,-2.2435,-2.2457,-2.2483,-2.2506,-2.248,-2.2526,-2.2527,-2.2518,-2.2551,-2.2551,-2.2585,-2.2542,-2.2543,-2.2544,0,-2.2103,-2.2138,-2.2193,-2.2237,-2.2252,-2.2279,-2.2319,-2.2348,-2.2385,-2.2399,-2.2426,-2.2441,-2.2478,-2.247,-2.2522,-2.2504,-2.2524,-2.2539,-2.2541,-2.2547,-2.2537,-2.256,-2.2597,-2.2602,-2.2552,-2.2551,-2.255,0,-2.211,-2.2171,-2.2213,-2.2231,-2.2283,-2.2302,-2.2324,-2.236,-2.2383,-2.2418,-2.2434,-2.2472,-2.2493,-2.2522,-2.2547,-2.2538,-2.2597,-2.2591,-2.2611,-2.2611,-2.2623,-2.2623,-2.2665,-2.2634,-2.2634,-2.2634,-2.2633,0,-2.2142,-2.2176,-2.2217,-2.2243,-2.2282,-2.2308,-2.2346,-2.2369,-2.2401,-2.2432,-2.2449,-2.2477,-2.2507,-2.254,-2.2559,-2.26,-2.2609,-2.2622,-2.2627,-2.2622,-2.262,-2.2636,-2.2635,-2.2635,-2.2635,-2.2634,-2.2634,0,-2.2157,-2.2186,-2.2233,-2.2279,-2.2291,-2.2318,-2.2357,-2.2382,-2.2405,-2.2444,-2.2455,-2.249,-2.2529,-2.2557,-2.2606,-2.2619,-2.2665,-2.2669,-2.2653,-2.2656,-2.2675,-2.2674,-2.2731,-2.274,-2.2701,-2.2701,-2.2701,0,-2.2176,-2.2203,-2.2252,-2.2274,-2.2297,-2.2333,-2.2357,-2.2385,-2.241,-2.2455,-2.2475,-2.2516,-2.255,-2.2612,-2.2642,-2.2681,-2.2687,-2.2704,-2.2693,-2.2687,-2.2689,-2.2688,-2.2692,-2.2706,-2.2707,-2.2707,-2.2707,0,-2.2207,-2.2221,-2.2256,-2.2298,-2.2327,-2.236,-2.2394,-2.2411,-2.2444,-2.2472,-2.2513,-2.254,-2.2592,-2.2632,-2.2674,-2.2697,-2.2708,-2.271,-2.2718,-2.2713,-2.2703,-2.2711,-2.2659,-2.2709,-2.2709,-2.2709,-2.2709,-2.2709,-2.2226,-2.2252,-2.2291,-2.2331,-2.2359,-2.239,-2.2418,-2.2445,-2.248,-2.2525,-2.2539,-2.2582,-2.2619,-2.2677,-2.27,-2.2735,-2.2733,-2.2743,-2.2746,-2.2748,-2.2749,-2.2697,-2.2742,-2.2742,-2.2742,-2.2742,-2.2742,0,-2.226,-2.2287,-2.2323,-2.237,-2.2402,-2.241,-2.2448,-2.2473,-2.2512,-2.2546,-2.258,-2.2628,-2.2668,-2.2701,-2.2743,-2.2764,-2.277,-2.2774,-2.2773,-2.2779,-2.2747,-2.2738,-2.2768,-2.2768,-2.2768,-2.2768,-2.2768,-2.2768,-2.2282,-2.2326,-2.2344,-2.2403,-2.2429,-2.2473,-2.2494,-2.2523,-2.2551,-2.2605,-2.2638,-2.266,-2.2695,-2.2739,-2.2776,-2.2785,-2.28,-2.2804,-2.2814,-2.2784,-2.2781,-2.2778,-2.2769,-2.2806,-2.2806,-2.2843,-2.2843,-2.2843]}]]